Weather History for Greenville, AL

Change the Weather History Date:

Friday, February 10, 2012

  Actual Average Record
Temperature  
Mean Temperature 50 °F -  
Max Temperature 59 °F 58 °F 82 °F (1932)
Min Temperature 41 °F 34 °F 12 °F (1971)
Degree Days  
Heating Degree Days 15    
Moisture  
Dew Point 41 °F    
Average Humidity 72    
Maximum Humidity 97    
Minimum Humidity 44    
Precipitation  
Precipitation 0.07 in - - ()
Sea Level Pressure  
Sea Level Pressure 30.07 in    
Wind  
Wind Speed 3 mph (WNW)    
Max Wind Speed 6 mph    
Max Gust Speed -    
Visibility 10 miles    
Events Rain    
Averages and records for this station are not official NWS values.
T = Trace of Precipitation, MM = Missing Value Source: NWS Daily Summary

Daily Weather History Graph

Daily Weather History Graph

Search for Another Location

Airport:

Trip Planner

Search our weather history database for the weather conditions in past years. The results will help you decide how hot, cold, wet, or windy it might be!

Date:

Astronomy

Feb. 10, 2012 Rise Set
Actual Time 6:33 AM CST 5:28 PM CST
Civil Twilight 6:08 AM CST 5:53 PM CST
Nautical Twilight 5:39 AM CST 6:22 PM CST
Astronomical Twilight 5:10 AM CST 6:50 PM CST
Moon 8:47 PM CST (2/10) 7:57 AM CST (2/10)
Length of Visible Light 11h 45m
Length of Day
10h 54m
Waning Gibbous, 90% of the Moon is Illuminated
Feb 10
Waning Gibbous
Feb 14
Last Quarter
Feb 21
New
Feb 29
First Quarter
Mar 8
Full

Hourly Weather History & Observations

Time (CST) Temp. Windchill Dew Point Humidity Pressure Visibility Wind Dir Wind Speed Gust Speed Precip Events Conditions
12:56 AM 39.9 °F 37.8 °F 37.0 °F 89% 30.17 in 10.0 mi North 3.5 mph - N/A   Clear
1:56 AM 41.0 °F 37.1 °F 37.0 °F 86% 30.16 in 10.0 mi North 5.8 mph - N/A   Clear
2:56 AM 43.0 °F 40.3 °F 36.0 °F 76% 30.14 in 10.0 mi North 4.6 mph - N/A   Clear
3:56 AM 43.0 °F - 37.0 °F 80% 30.14 in 10.0 mi Calm Calm - 0.00 in   Clear
4:56 AM 44.1 °F 41.5 °F 36.0 °F 73% 30.12 in 10.0 mi NE 4.6 mph - N/A   Clear
5:56 AM 45.0 °F 43.5 °F 34.0 °F 65% 30.13 in 10.0 mi ESE 3.5 mph - N/A   Clear
6:56 AM 46.0 °F - 36.0 °F 68% 30.15 in 10.0 mi Calm Calm - N/A   Clear
7:56 AM 46.9 °F - 37.0 °F 68% 30.14 in 10.0 mi Calm Calm - N/A   Clear
8:56 AM 48.9 °F - 37.9 °F 66% 30.13 in 10.0 mi Calm Calm - N/A   Clear
9:56 AM 53.1 °F - 36.0 °F 52% 30.14 in 10.0 mi Calm Calm - N/A   Mostly Cloudy
10:56 AM 55.0 °F - 36.0 °F 49% 30.13 in 10.0 mi WSW 4.6 mph - N/A   Overcast
11:56 AM 55.9 °F - 36.0 °F 47% 30.09 in 10.0 mi Calm Calm - N/A   Clear
12:56 PM 57.9 °F - 36.0 °F 44% 30.04 in 10.0 mi Calm Calm - N/A   Clear
1:56 PM 59.0 °F - 37.0 °F 44% 30.01 in 10.0 mi West 4.6 mph - N/A   Clear
2:56 PM 59.0 °F - 37.9 °F 46% 30.00 in 10.0 mi SSW 5.8 mph - N/A   Partly Cloudy
3:56 PM 57.0 °F - 37.9 °F 49% 29.99 in 10.0 mi WSW 5.8 mph - N/A   Mostly Cloudy
4:56 PM 55.9 °F - 39.9 °F 55% 30.01 in 10.0 mi West 5.8 mph - N/A   Partly Cloudy
5:48 PM 53.1 °F - 42.1 °F 66% 30.02 in 10.0 mi West 5.8 mph - 0.00 in Rain Light Rain
5:56 PM 52.0 °F - 44.1 °F 74% 30.02 in 7.0 mi Calm Calm - 0.01 in Rain Light Rain
6:16 PM 50.0 °F - 46.0 °F 86% 30.03 in 10.0 mi Calm Calm - 0.01 in Rain Light Rain
6:56 PM 50.0 °F - 48.0 °F 93% 30.02 in 10.0 mi Calm Calm - 0.03 in Rain Light Rain
7:28 PM 48.9 °F - 48.0 °F 97% 30.03 in 5.0 mi Calm Calm - 0.02 in Rain Light Rain
7:40 PM 48.9 °F - 46.9 °F 93% 30.04 in 6.0 mi West 4.6 mph - 0.02 in Rain Light Rain
7:56 PM 48.9 °F - 46.9 °F 93% 30.04 in 10.0 mi West 5.8 mph - 0.03 in Rain Light Rain
8:56 PM 48.9 °F - 46.0 °F 90% 30.04 in 10.0 mi NW 3.5 mph - 0.00 in   Mostly Cloudy
9:32 PM 48.0 °F - 45.0 °F 89% 30.04 in 10.0 mi NW 5.8 mph - N/A   Scattered Clouds
9:56 PM 48.0 °F - 45.0 °F 89% 30.05 in 10.0 mi NW 5.8 mph - N/A   Mostly Cloudy
10:56 PM 48.0 °F - 44.1 °F 86% 30.04 in 10.0 mi NW 3.5 mph - N/A   Mostly Cloudy
11:05 PM 48.0 °F - 44.1 °F 86% 30.03 in 10.0 mi Calm Calm - N/A   Mostly Cloudy
11:56 PM 46.9 °F - 44.1 °F 90% 30.00 in 10.0 mi Calm Calm - N/A   Mostly Cloudy